User: anonymous   Login
Location: Unspecified
(0.0000°N, 0.0000°E)
Time: 04:48:30
(UTC+00:00)
Language:

Intasat - Orbit

View from above orbital plane
View from above orbital plane
View from above satellite
View from above satellite

Ground track
Ground track

The orbit data is extracted from the following two-line orbital elements,

1  7531U 74089C   18020.41257014 -.00000054 +00000-0 -59946-4 0  9997
2  7531 101.6653 350.3146 0010927 272.4131 239.6525 12.53500308975641
Epoch (UTC): 20 January 2018 09:54:06
Eccentricity: 0.0010927
inclination: 101.6653°
perigee height: 1441 km
apogee height: 1458 km
right ascension of ascending node: 350.3146°
argument of perigee: 272.4131°
revolutions per day: 12.53500308
mean anomaly at epoch: 239.6525°
orbit number at epoch: 97564

The dashed part of the orbit path shows where the satellite is in the earth's shadow,  

DLR